Other Surface Observations
Issued by NWS Jacksonville, FL

Home | Current Version | Previous Version | Text Only | Print | Product List | Glossary On
Versions: 1 2 3 4 5 6 7 8 9 10 11 12 13 14 15 16 17 18 19 20 21 22 23 24 25 26 27 28 29 30 31 32 33 34 35 36 37 38 39 40 41 42 43 44 45 46 47 48 49 50
000
SXUS52 KJAX 231210
OSOJAX
OTHER SURFACE OBSERVATIONS
NATIONAL WEATHER SERVICE JACKSONVILLE FL
800 AM EDT TUE SEP 23 2014

FLZ020>025-030>033-035>038-040-231300-
...FLORIDA...

CITY           SKY/WX    TMP DP  RH WIND       PRES   REMARKS
CECIL FIELD    HVY RAIN  70  68  94 N12       30.05R VSB 1/2
HERLONG FIELD  NOT AVBL
FERNANDINA BCH NOT AVBL
LAKE CITY      PTSUNNY   68  68 100 NE7       30.04R
JUNIPER SPGS   NOT AVBL
BUNNELL        PTSUNNY   70  70 100 CALM      30.03R
KEYSTONE HGTS    N/A     70  70 100 CALM      30.04R
$$

GAZ132>136-149>154-162>166-231300-
...GEORGIA...

CITY           SKY/WX    TMP DP  RH WIND       PRES   REMARKS
JESUP          CLOUDY    68  64  88 E6        30.10R
HOMERVILLE     CLOUDY    70  64  83 E3        30.08R
SWAINSBORO     CLOUDY    66  66 100 NE3       30.13S
CORDELE        NOT AVBL
$$

PLEASE NOTE:  THESE OBSERVATIONS ARE NOT QUALITY CONTROLLED AND MAY
NOT BE AVAILABLE AT ALL TIMES.
$$


USA.gov is the U.S. government's official web portal to all federal, state and local government web resources and services.